Weather observations for the past three days for
Nadi International Airport
Metric (Imperial)
Date Time (+12) Wind (kph) Vis. (km) Weather Sky Cond. Temperature (ºC) Relative Humidity Wind Chill (°C) Heat Index (°C) Pressure Precipitation (cm)
Air Dwpt 6 hour altimeter (cm) sea level (mb) 1 hr 3 hr 6 hr
Max. Min.
05 15:00 NW 22 0.00 Partly Cloudy SCT026TCU 29 20 58% 31 0 0.0
05 14:00 NW 24 0.00 Partly Cloudy SCT028 29 21 62% 31 0 0.0
05 13:00 NW 11 0.00 Partly Cloudy SCT028 29 22 66% 32 0 0.0
05 12:00 NW 15 0.00 Partly Cloudy SCT030 28 21 66% 30 0 0.0
05 11:00 SE 6 0.00 A Few Clouds FEW030 29 21 62% 31 0 0.0
05 10:00 SW 6 0.00 A Few Clouds FEW030 27 21 70% 29 0 0.0
05 09:00 S 7 0.00 A Few Clouds FEW030 26 20 70% 27 0 0.0
05 08:00 SE 7 0.00 A Few Clouds FEW030 24 19 74% 25 0 0.0
05 07:00 E 11 0.00 A Few Clouds FEW030 22 19 83% 0 0.0
05 06:00 SE 6 0.00 A Few Clouds FEW030 21 19 88% 0 0.0
05 05:00 Calm 0.00 A Few Clouds FEW030 21 19 88% 0 0.0
05 04:00 E 6 0.00 A Few Clouds FEW030 22 19 83% 0 0.0
05 03:00 SE 13 0.00 A Few Clouds FEW030 23 19 78% 0 0.0
05 02:00 SE 17 0.00 A Few Clouds FEW030 23 20 83% 0 0.0
05 01:00 SE 15 0.00 A Few Clouds FEW030 24 20 78% 24 0 0.0
05 00:00 SE 9 0.00 A Few Clouds FEW030 24 21 83% 24 0 0.0
04 23:00 S 13 0.00 A Few Clouds FEW030 24 22 89% 24 0 0.0
04 22:00 SE 6 0.00 Partly Cloudy FEW030 SCT120 24 22 89% 24 0 0.0
04 21:00 Calm 0.00 Partly Cloudy FEW030 SCT120 24 22 89% 24 0 0.0
04 20:00 S 7 0.00 Partly Cloudy FEW030 SCT120 24 23 94% 23 0 0.0
04 19:00 Calm 0.00 Mostly Cloudy FEW028TCU SCT048 BKN120 25 23 89% 26 0 0.0
04 18:00 SE 9 0.00 Light Showers Rain FEW028TCU SCT048 BKN110 26 22 79% 28 0 0.0
04 17:00 Calm 0.00 Mostly Cloudy FEW028 SCT048 BKN120 27 21 70% 29 0 0.0
04 16:00 NW 6 0.00 Mostly Cloudy FEW028 SCT048 BKN120 28 21 66% 30 0 0.0
04 15:00 W 13 0.00 Mostly Cloudy FEW028 SCT048 BKN120 28 21 66% 30 0 0.0
04 14:00 W 19 0.00 Mostly Cloudy FEW030 SCT050 BKN120 28 21 66% 30 0 0.0
04 13:00 W 19 0.00 Partly Cloudy FEW030 SCT050 28 22 70% 31 0 0.0
04 12:00 W 17 0.00 Partly Cloudy FEW030 SCT050 29 20 58% 31 0 0.0
04 11:00 W 26 0.00 Partly Cloudy FEW030 SCT050 28 20 62% 30 0 0.0
04 10:00 S 11 0.00 Partly Cloudy FEW030 SCT050 28 19 58% 29 0 0.0
04 09:00 SE 24 0.00 A Few Clouds FEW030 28 19 58% 29 0 0.0
04 08:00 SE 20 0.00 Partly Cloudy FEW030 SCT050 26 17 58% 27 0 0.0
04 07:00 SE 17 0.00 Mostly Cloudy FEW030 SCT048 BKN110 25 17 61% 26 0 0.0
04 06:00 SE 22 0.00 Mostly Cloudy FEW030 SCT048 BKN110 25 17 61% 26 0 0.0
04 05:00 SE 20 0.00 Mostly Cloudy FEW030 SCT048 BKN110 25 17 61% 26 0 0.0
04 04:00 E 22 0.00 Mostly Cloudy SCT028 BKN048 BKN110 24 17 65% 25 0 0.0
04 03:00 E 26 0.00 Light Rain SCT028 BKN048 BKN110 23 18 74% 0 0.0
04 02:00 E 30 0.00 Light Rain SCT028 BKN048 BKN110 23 19 78% 0 0.0
04 01:00 E 15 0.00 Light Showers Rain SCT028TCU BKN048 BKN110 22 19 83% 0 0.0
04 00:00 SE 7 0.00 Light Showers Rain SCT025TCU BKN045 BKN100 22 18 78% 0 0.0
03 23:00 S 9 0.00 Light Showers Rain SCT025TCU BKN045 BKN100 22 18 78% 0 0.0
03 22:00 SE 22 0.00 Light Showers Rain SCT025TCU BKN045 BKN100 23 18 74% 0 0.0
03 21:00 E 15 0.00 Thunderstorm Rain SCT025TCU BKN045 BKN100 23 19 78% 0 0.0
03 20:00 SE 13 0.00 Light Showers Rain Thunderstorm Rain SCT025TCU BKN045 OVC100 22 19 83% 0 0.0
03 19:00 E 6 0.00 Light Showers Rain Thunderstorm Rain SCT025TCU BKN045 OVC100 22 19 83% 0 0.0
03 18:00 SE 22 0.00 Light Showers Rain Thunderstorm Rain SCT025TCU SCT045 BKN110 23 20 83% 0 0.0
03 17:00 S 7 0.00 Light Showers Rain Thunderstorm Rain SCT025TCU SCT045 BKN110 28 24 79% 32 0 0.0
03 16:00 SW 15 0.00 Mostly Cloudy SCT028TCU SCT048 BKN120 28 23 74% 31 0 0.0
03 15:00 W 19 0.00 Mostly Cloudy SCT028TCU SCT048 BKN120 29 23 70% 33 0 0.0
03 14:00 W 19 0.00 Partly Cloudy SCT028 SCT120 29 24 74% 34 0 0.0
03 13:00 NW 17 0.00 Partly Cloudy SCT030 SCT120 29 23 70% 33 0 0.0
03 12:00 NW 17 0.00 Partly Cloudy SCT030 SCT050 30 23 66% 34 0 0.0
03 11:00 SE 13 0.00 Partly Cloudy FEW030 SCT300 31 22 59% 35 0 0.0
03 10:00 SE 13 0.00 Partly Cloudy FEW030 SCT050 30 22 62% 33 0 0.0
03 09:00 Calm 0.00 Mostly Cloudy FEW030 BKN048 28 23 74% 31 0 0.0
03 08:00 Calm 0.00 Mostly Cloudy FEW030 BKN048 27 22 74% 29 0 0.0
03 07:00 Calm 0.00 Partly Cloudy FEW030 SCT050 25 25 100% 25 0 0.0
03 06:00 E 6 0.00 Partly Cloudy FEW030 SCT120 24 24 100% 23 0 0.0
03 05:00 Calm 0.00 Partly Cloudy FEW030 SCT300 24 24 100% 23 0 0.0
03 04:00 SE 9 0.00 Partly Cloudy FEW030 SCT300 24 24 100% 23 0 0.0
03 03:00 Calm 0.00 Mostly Cloudy FEW030 BKN300 24 24 100% 23 0 0.0
03 02:00 Calm 0.00 Mostly Cloudy FEW030 SCT120 BKN300 25 24 94% 26 0 0.0
03 01:00 SE 9 0.00 Mostly Cloudy FEW030 SCT120 BKN300 25 24 94% 26 0 0.0
03 00:00 Calm 0.00 Mostly Cloudy SCT030 BKN300 25 24 94% 26 0 0.0
02 23:00 SE 7 0.00 Partly Cloudy SCT030 SCT300 26 23 84% 28 0 0.0
02 22:00 Calm 0.00 A Few Clouds FEW030 26 23 84% 28 0 0.0
02 21:00 SE 9 0.00 Partly Cloudy FEW030 SCT050 26 24 89% 28 0 0.0
02 20:00 Calm 0.00 Partly Cloudy FEW028 SCT050 27 24 84% 30 0 0.0
02 19:00 Calm 0.00 Partly Cloudy FEW028 SCT050 27 25 89% 31 0 0.0
02 18:00 N 7 0.00 Partly Cloudy SCT028TCU SCT048 28 24 79% 32 0 0.0
02 17:00 NW 6 0.00 Partly Cloudy SCT028TCU SCT048 28 24 79% 32 0 0.0
02 16:00 N 15 0.00 Partly Cloudy SCT028TCU SCT048 29 24 74% 34 0 0.0
Date Time (+12) Wind (kph) Vis. (km) Weather Sky Cond. Air Dwpt Max. Min. Relative Humidity Wind Chill (°C) Heat Index (°C) altimeter (cm) sea level (mb) 1 hr 3 hr 6 hr
6 hour
Temperature (ºC) Pressure Precipitation (cm)